Погода в Тури

Погода в Тури : погода сейчас, прогноз погоды и архив. Всё, что Вы хотите узнать о погоде в Тури!

Поиск расширенной информации на нашем сайте:

Полезная информация: Аккорды - синяя птица аккорды.

Другие новости

Новости СМИ2

Главная страница сайта

Новости сайта

03.07.2017

Напоминаем, что на нашем специализированном сайте Метеоцентр.Азия вы можете получить высокодетализированные автоматические прогнозы погоды по пунктам России, СНГ и мира в авиационном формате (включающие направление и скорость ветра, видимость, явления погоды, количество и форму облачности, нижнюю и верхнюю границу облачности).

Рекомендуем: Написание Стихов на заказ

Погода в Тури - сегодня

Время (UTC), дата Ветер
(°,м/с) 
Видим.   Явления Облачность Т
(°С)
Тd
(°С)
f(%) Тe
(°С)
Pmin
(гПа)
dP
(гПа)
Po
(мм)
O2
(г/м3)
Тmin Tmax R s Состояние
почвы
21 17.06.18 120 (ЮВ) 20000 м    4/0 
[]
+16.9 +14.9 88 +26  1014.4  755  284  +16.8  +24.1       
00 18.06.18 120 (ЮВ) 15000 м    ясно 
[]
+14.8 +14.3 97 +22  1013.7  -0.7  755  286  +14.8  +24.1       
03 18.06.18 190 (Ю) 16000 м    ясно 
[]
+15.3 +14.2 93 +24  1013.5  -0.2  755  285  +13.6  +22.5       
09 18.06.18 210 (ЮЗ) 20000 м    9/0 
[]
+21 +12.2 57 +25  1013.4  0.2  755  280  +13.6  +22.8       
12 18.06.18 260 (З) 3{09}  20000 м    8/5 1170 м 
[]
+22.5 +13.5 57 +29  1013.1  -0.3  755  278  +13.6  +23.7       
15 18.06.18 230 (ЮЗ) 20000 м    3/1 1500 м 
[]
+21 +9.7 48 +22  1013.2  0.1  755  281  +15.3  +23.9       
21 18.06.18 220 (ЮЗ) 20000 м    9/0 
[]
+14.9 +10.1 73 +17  1013.9  0.9  755  287  +14.9  +23.9       
03 19.06.18 180 (Ю) 20000 м    9/9 330 м 
[]
+12.4 +11.2 92 +16  1012  -1.1  754  288  +10.7  +21.3       
09 19.06.18 200 (Ю) 4{10}  20000 м  ливневой дождь  9/9 570 м 
[]
+16.2 +13.8 86 +23  1007.8  -2  751  283  +10.7  +17.8       
15 19.06.18 250 (З) 5-14{17}  20000 м  {дождь}  5/5 900 м 
[]
+16.9 +8.8 59 +17  1006  0.7  749  283  +12.4  +17.8  0.9     
21 19.06.18 220 (ЮЗ) 20000 м    ясно 
[]
+13.1 +9.6 79 +15  1007.9  1.2  751  287  +13.1  +18       
00 20.06.18 220 (ЮЗ) 20000 м    ясно 
[]
+12 +8.3 78 +12  1008.1  0.2  751  288  +11.9  +18       
03 20.06.18 230 (ЮЗ) 3{08}  20000 м    ясно 
[]
+12.7 +9 78 +13  1008.5  0.4  751  288  +11.7  +18       
09 20.06.18 230 (ЮЗ) 5-9{09}  20000 м    4/4 1050 м 
[]
+17.9 +8.4 54 +18  1010.3  1.2  752  283  +11.7  +18.2       
12 20.06.18 240 (ЮЗ) 4-8{12}  20000 м    ясно 
[]
+19.5 +3.8 35 +20  1010.7  0.4  753  283  +11.7  +20.5       
15 20.06.18 240 (ЮЗ) 3{12}  20000 м    9/0 
[]
+18.1 +5.4 43 +19  1011  0.3  753  284  +12.7  +20.8       
21 20.06.18 200 (Ю) 20000 м  слаб. дождь{ливн. осадки}  10/10 1350 м 
[]
+12 +11 94 +14  1010.1  -0.6  752  288  +12  +20.8  0.3     
00 21.06.18 120 (ЮВ) 9000 м  слаб. морось{ливн. осадки, дождь}  10/10 120 м 
[]
+11.4 +11 97 +14  1007.5  -2.6  750  288  +11.3  +20.8  0.4     
03 21.06.18 190 (Ю) 3800 м  дымка{ливн. осадки}  10/10 60 м 
[]
+12.6 +12.6 100 +19  1006.2  -1.3  749  286  +11.3  +18.1  0.5     
09 21.06.18 140 (ЮВ) 8000 м  ливневой дождь  10/10 180 м 
[]
+15.3 +14.8 97 +24  1004.6  -1.5  748  282  +11.3  +16.4     
12 21.06.18 190 (Ю) 15000 м  ливневой дождь  9/5 300 м 
[]
+17.6 +16.2 92 +29  1004  -0.6  748  279  +11.3  +17.8  0.4     
15 21.06.18 210 (ЮЗ) 20000 м    9/9 540 м 
[]
+19.6 +14.5 72 +29  1002.4  -1.6  747  278  +12.7  +20       
21 21.06.18 240 (ЮЗ) 4-10{10}  4600 м  сильн. ливневой дождь  9/9 330 м 
[]
+14.9 +14.2 96 +23  996.7  -2.9  742  281  +14.9  +20     
00 22.06.18 220 (ЮЗ) 2{08}  20000 м  {дождь}  9/9 120 м 
[]
+13 +12.6 97 +18  996.7  742  283  +12.9  +20     
03 22.06.18 190 (Ю) 3{08}  20000 м  {ливн. осадки}  9/9 150 м 
[]
+11.7 +11 95 +14  997.2  0.5  743  285  +10.7  +19.9       
Время (UTC), дата Ветер
(°,м/с) 
Видим.   Явления Облачность Т
(°С)
Тd
(°С)
f(%) Тe
(°С)
Pmin
(гПа)
dP
(гПа)
Po
(мм)
O2
(г/м3)
Тmin Tmax R s Состояние
почвы

Для получения пояснительной информации подведите курсор к названию столбца.

ПОГОДА в Тури - архив

Всё, что Вы хотите узнать о погоде в Тури - удобно и подробно!

Выберите нужную дату (начиная с 1 января 2015* года) и нажмите кнопку "Найти".
Будут отображены архивные сводки погоды по пункту Тури, начиная с указанной даты.


Отображать данные в формате CSV (для использования в таблицах Excel)


Внимание! Наш архив погоды предназначен исключительно для личного некоммерческого использования в познавательных целях. Если Вам необходимы официальные справки о состоянии погоды (для производственных, юридических, коммерческих и т.п. целей), обращайтесь в органы Росгидромета.

*Примечание: данная дата относится к архиву по метеостанциям СССР (Россия, СНГ, Балтия).
Архив по метеостанциям Зарубежной Европы и Азии (кроме Китая) хранится 10 дней, по другим регионам земного шара (Китай, Африка, Америка, Австралия, Океания) - 1 день.

Тури - район местоположения метеостанции


Название, широта, долгота, высота метеостанции:
Тури 58.8°ш. 25.4°д. 65 м над ур. моря [Эстония]

Дополнительная информация

В oтличие oт бoльшинства пoгoдных сайтoв мы публикуем пoдрoбную метеoинфoрмацию в детальнoм прoфессиoнальнoм фoрмате.

Характеристики температуры и влажнoсти вoздуха измеряются на высoте 2 м в тени вдали oт зданий и деревьев.
Скoрoсть ветра измеряется на высoте 10 м (на урoвне рoста челoвека скoрoсть ветра ниже в 1.5-2 раза). Если метеoстанция нахoдится в гoрoде или в лесу, тo скoрoсть ветра занижена на 2-4 м/с пo сравнению с oткрытым местoм. Скoрoсть ветра над акватoриями крупных рек и oзёр, а также на вершинах хoлмoв на 2-5 м/с выше, чем в oбычных услoвиях.
Атмoсфернoе давление в разных тoчках местнoсти мoжет значительнo oтличаться oт давления на метеoстанции, в зависимoсти oт услoвий рельефа (при пoдъёме на 10 м давление пoнижается примернo на 1 мм рт.ст.).